www.pogodaiklimat.ru

Погода и климат >> Архив погоды >> Иран >> Abadan


ПОГОДА в Abadan

  • Прогноз погоды в Abadan
  • Монитор погоды в Abadan
  • Климат города

АРХИВ ПОГОДЫ в Abadan

Время (UTC), дата Ветер
(напр.,м/с)
 
Видим.   Явления Облачность Т
(С)
Тd
(С)
f
(%)
Тe
(С)
Тes
(С)
Комфортность P
(гПа)
Po
(гПа)
Тmin
(С)
Tmax
(С)
R
(мм)
R24
(мм)
S
(см)
03 11.10 Ю 1 6000 м мгла ясно +23.7 +11.8 47 +25 +25 комфорт 1010.4 1009.6 +23.7
06 11.10 Ю 2 8000 м мгла ясно +34.2 +14.7 31 +36 +42 душно 1011.8 1011.0
09 11.10 ЮЗ 2 8000 м мгла ясно +41.5 +9.6 15 +40 +53 опасность
солнечного
удара
1010.5 1009.8
12 11.10 штиль 0 7000 м мгла 1/0
[Ac trans]
+43.6 +8.0 12 +41 +48 опасность
перегрева
1008.9 1008.1
15 11.10 ЮВ 2 10 км ясно +36.3 +16.0 30 +38 +38 очень
душно
1008.9 1008.1 +43.8
18 11.10 ЮВ 2 10 км ясно +30.1 +22.9 65 +40 +40 очень
душно
1010.0 1009.2
21 11.10 ЮВ 3 5000 м дымка ясно +28.8 +25.6 83 +43 +43 опасность
перегрева
1010.1 1009.3
00 12.10 ЮВ 2 5000 м дымка ясно +28.6 +25.4 83 +42 +42 опасность
перегрева
1010.1 1009.4
03 12.10 Ю 2 1000 м дымка ясно +26.5 +23.9 86 +37 +37 очень
душно
1010.4 1009.6 +26.3
06 12.10 ЮЗ 3 5000 м мгла ясно +33.0 +22.8 55 +43 +48 опасность
перегрева
1011.6 1010.8
09 12.10 В 2 5000 м мгла ясно +39.7 +18.3 29 +43 +56 опасность
перегрева
1011.4 1010.6
12 12.10 СВ 2 7000 м мгла ясно +41.0 +16.4 24 +43 +48 опасность
перегрева
1010.0 1009.2
15 12.10 Ю 3 5000 м мгла ясно +34.9 +22.9 50 +45 +45 опасность
перегрева
1010.0 1009.2 +41.4
18 12.10 ЮВ 2 5000 м дымка ясно +29.9 +26.7 83 +46 +46 опасность
перегрева
1011.4 1010.7
21 12.10 Ю 2 4000 м дымка ясно +27.8 +26.0 90 +42 +42 опасность
перегрева
1011.4 1010.6
00 13.10 штиль 0 1200 м дымка ясно +26.3 +25.1 93 +38 +38 очень
душно
1011.2 1010.4
03 13.10 СЗ 4 500 м туман ясно +25.7 +25.0 96 +37 +37 очень
душно
1012.7 1011.9 +24.8
06 13.10 СВ 2 2500 м мгла {туман} ясно +31.6 +23.2 61 +42 +49 опасность
перегрева
1014.5 1013.7
09 13.10 В 2 7000 м мгла ясно +37.3 +20.2 37 +43 +56 опасность
перегрева
1013.4 1012.6
12 13.10 штиль 0 7000 м мгла ясно +40.7 +16.2 24 +42 +49 опасность
перегрева
1011.9 1011.1
15 13.10 Ю 2 6000 м мгла ясно +33.8 +20.9 47 +41 +41 опасность
перегрева
1012.1 1011.3 +40.7
18 13.10 Ю 2 5000 м мгла ясно +29.2 +25.2 79 +42 +42 опасность
перегрева
1013.2 1012.4
21 13.10 Ю 2 3500 м дымка ясно +27.6 +25.4 88 +40 +40 очень
душно
1013.0 1012.2
00 14.10 Ю 2 3500 м дымка ясно +26.6 +24.8 90 +38 +38 очень
душно
1013.0 1012.2
03 14.10 штиль 0 1200 м дымка ясно +25.7 +24.3 92 +36 +36 очень
душно
1013.7 1012.9 +25.6
06 14.10 Ю 2 1200 м дымка {туман} ясно +30.6 +27.6 84 +49 +56 опасность
перегрева
1015.2 1014.4
09 14.10 Ю 2 5000 м мгла ясно +36.6 +23.8 48 +48 +60 опасность
перегрева
1013.9 1013.1
12 14.10 ЮЗ 2 8000 м мгла ясно +37.7 +23.0 43 +47 +52 опасность
перегрева
1013.1 1012.3
15 14.10 штиль 0 6000 м мгла ясно +35.0 +18.4 38 +39 +39 очень
душно
1012.0 1011.2 +38.0
18 14.10 ЮВ 1 6000 м мгла ясно +30.0 +15.3 41 +40 +40 очень
душно
1012.7 1011.9
21 14.10 СВ 5 2000 м пыльный позёмок 4/0
[Ac trans]
+29.5 +14.1 39 +31 +31 жарко 1014.0 1013.2
00 15.10 ЮВ 2 500 м пыльный позёмок {туман} ясно +28.3 +15.4 45 +31 +31 душно 1012.5 1011.8
03 15.10 ЮВ 1 800 м пыльный позёмок {туман} 8/3 1200 м
[Sc Ac trans]
+27.1 +17.2 55 +31 +31 душно 1014.0 1013.2 +26.5
06 15.10 С 5 6000 м мгла {гроза, туман} 4/0
[Ac trans]
+28.0 +15.1 45 +31 +33 душно 1016.2 1015.4 0.0
09 15.10 В 4 10 км 5/3 1200 м
[Sc Ac trans]
+34.3 +14.7 31 +36 +41 душно 1014.8 1014.0
12 15.10 ЮВ 3 2000 м пыль ясно +35.4 +12.4 25 +35 +39 очень
жарко
1013.5 1012.7
15 15.10 СВ 1 10 км ясно +31.8 +12.6 31 +32 +32 жарко 1013.9 1013.1 +37.3
18 15.10 Ю 2 1500 м пыль ясно +27.8 +16.4 50 +31 +31 душно 1014.4 1013.6
21 15.10 ЮЗ 1 4000 м пыль ясно +25.1 +14.3 51 +28 +28 жарко 1013.9 1013.1
00 16.10 С 1 6000 м пыль ясно +23.8 +15.0 58 +27 +27 жарко 1013.2 1012.4
03 16.10 З 1 1200 м пыль ясно +23.1 +17.7 72 +29 +29 очень
душно
1014.5 1013.7 +23.0
06 16.10 штиль 0 1500 м пыль 5/0
[Cc]
+30.2 +20.7 57 +37 +45 очень
душно
1015.9 1015.1
09 16.10 С 3 3000 м пыль 8/0
[Cs]
+35.1 +17.3 35 +38 +47 очень
душно
1014.3 1013.5
12 16.10 С 2 6000 м пыль 5/0
[Cs]
+37.1 +12.5 23 +37 +41 очень
жарко
1012.6 1011.8
15 16.10 СВ 2 5000 м пыль ясно +33.2 +13.8 31 +34 +34 очень
жарко
1012.3 1011.5 +37.2
18 16.10 Ю 1 7000 м пыль ясно +28.1 +15.4 46 +31 +31 душно 1013.2 1012.4
21 16.10 штиль 0 10 км ясно +25.2 +16.6 59 +29 +29 душно 1012.7 1011.8
00 17.10 ЮЗ 1 10 км ясно +24.0 +18.0 69 +28 +28 душно 1012.0 1011.2
03 17.10 З 3 4000 м мгла 3/0
[Ci fib]
+23.8 +15.0 58 +27 +27 жарко 1012.6 1011.8 +22.8
06 17.10 З 3 3000 м мгла ясно +30.3 +16.0 42 +33 +38 душно 1014.1 1013.3
09 17.10 С 3 7000 м мгла ясно +35.6 +13.1 26 +36 +46 очень
жарко
1013.1 1012.3
12 17.10 С 3 10 км ясно +37.6 +9.3 18 +36 +40 очень
жарко
1011.0 1010.2
15 17.10 штиль 0 10 км ясно +32.3 +9.8 25 +32 +32 жарко 1010.9 1010.1 +37.8
18 17.10 штиль 0 10 км ясно +28.4 +10.1 32 +29 +29 жарко 1011.4 1010.6
21 17.10 ЮЗ 2 10 км ясно +26.0 +18.4 63 +31 +31 очень
душно
1010.7

 

Местоположение метеостанции Abadan (Иран): широта 30.37 долгота 48.25 высота над уровнем моря 6 м.

В архиве по умолчанию представлена погода в Abadan за последнюю неделю. Архивные данные за месяц целиком и за предыдущие месяцы, начиная с января 2011 года, Вы можете получить, выбрав интересующий диапазон дат из раскрывающегося списка и нажав кнопку "Ввод!".


*Определитесь, кто Вы:
робот инопланетянин человек

Внимание! Время в таблицах - всемирное. Для получения местного времени необходимо прибавить поправку, которая в Abadan равна 3.5 ч.

Смотрите также архив погоды в соседних городах и на ближайших метеорологических станциях:

Погода в Basrah Airport (Ирак) (48 км)
Погода в Fao (Ирак) (50 км)
Погода в Basrah (Ирак) (50 км)
Погода в Abdaly (Кувейт) (62 км)
Погода в Bubiyan (Кувейт) (68 км)
Погода в Sabriyah (Кувейт) (79 км)
Погода в Failaka Island (Кувейт) (100 км)
Погода в Mitribah (Кувейт) (104 км)
Погода в Jal Aliyah (Кувейт) (106 км)
Погода в Ahwaz (Иран) (114 км)

Пояснения к столбцам:

Ветер - указаны скорость ветра в м/с - средняя за 10 мин, порывы в срок и между сроками (в фигурных скобках) и направление, откуда дует ветер: С - северный, СВ - северо-восточный, В - восточный, ЮВ - юго-восточный, Ю - южный, ЮЗ - юго-западный, З - западный, СЗ - северо-западный.
Видимость - горизонтальная дальность видимости в метрах или километрах. При видимости от 1 до 10 км при отсутствии осадков обычно наблюдается дымка, при ухудшении видимости до 1 км и менее - туман. В сухую погоду видимость может ухудшаться дымом, пылью или мглою.
Явления - указаны атмосферные явления, наблюдавшиеся в срок или в последний час перед сроком; фигурными скобками обозначены явления, наблюдавшиеся между сроками (за 1-3 часа до срока); квадратными скобками обозначены град или гололедные отложения с указанием их диаметра в мм.
Облачность - указаны через наклонную черту общая и нижняя облачность в баллах и высота нижней границы облаков в метрах; квадратными скобками обозначены формы облаков: Ci - перистые, Cs - перисто-слоистые, Cc - перисто-кучевые, Ac - высококучевые, As - высокослоистые, Sc - слоисто-кучевые, Ns - слоисто-дождевые, Cu - кучевые, Cb - кучево-дождевые. Подробнее классификацию облаков см. в Атласе облаков (PDF).
T - Температура воздуха - температура, измеренная на высоте 2 м над землей.
Td - Температура точки росы - температура, при понижении до которой содержащийся в воздухе водяной пар достигнет насыщения.
f - Относительная влажность воздуха - влажноcть воздуха, измеренная на высоте 2 м над землей.
Te - Эффективная температура - температура, которую ощущает одетый по сезону человек в тени. Характеристика душности погоды. При расчете учитывается влияние влажности воздуха и скорости ветра на теплоощущения человека.
Tes - Эффективная температура на солнце - температура, которую ощущает человек, с поправкой на солнечный нагрев. Характеристика знойности погоды. Зависит от высоты солнца над горизонтом, облачности и скорости ветра. Ночью, в пасмурную погоду, а также при ветре 12 м/с и более поправка равна нулю.
P - Атмосферное давление - приведенное к уровню моря атмосферное давление.
Po - Атмосферное давление - измеренное на уровне метеостанции атмосферное давление.
Tmin - Минимальная температура - минимум температуры воздуха на высоте 2 м над землей.
Tmax - Максимальная температура - максимум температуры воздуха на высоте 2 м над землей.
R - Количество осадков - Количество выпавших осадков за период времени, мм. При наведении курсора мыши на число - период времени, за который выпало указанное количество осадков.
R24 - Количество осадков - Количество выпавших осадков за 24 часа, мм.
S - Снежный покров - Высота снежного покрова, см. При наведении курсора мыши на число - состояние снежного покрова и степень покрытия местности в баллах.